Other Public Products
Issued by NWS Charleston, SC

Current Version | Previous Version | Text Only | Print | Product List | Glossary On
Versions: 1 2 3 4 5 6 7 8 9 10 11 12 13 14 15 16 17 18 19 20 21 22 23 24 25 26 27 28 29 30 31 32 33 34 35 36 37 38 39 40 41 42 43 44 45 46 47 48 49 50
000 FPUS82 KCHS 192127 OPUCHS TEST...KCHS/KSAV Gateway Observations...TEST National Weather Service Charleston SC 400 PM EST THU JAN 19 2017 NOTE: "fair" indicates few or no clouds below 12,000 feet with no significant weather and/or obstructions to visibility. SCZ050-WAZ558-NCZ071-TXZ119-213-PAZ071-DCZ001-FLZ074-172-MI076- NYZ176-178-MAZ016-IL014-TNZ027-NJZ106-GAZ044-MD014-192200- ...Gateway Observations for Charleston International... CITY SKY/WX TMP DP RH WIND PRES REMARKS Chas Airport PTSUNNY 68 53 58 SE10 29.99R Seattle CLOUDY 48 42 80 S10 29.51F Charlotte PTSUNNY 64 36 35 CALM 30.00F Dallas DFW MOSUNNY 66 52 60 S16 29.62F Dallas Love MOSUNNY 64 50 60 S15 29.65F Philladelphia CLOUDY 47 34 60 N8 30.03R Wash National CLOUDY 52 38 58 NE5 30.03S Baltimore CLOUDY 50 37 61 W6 30.00S Miami MOSUNNY 80 62 54 SE10 29.99S Detroit CLOUDY 37 32 82 S7 29.98S HAZE WCI 32 Newark CLOUDY 45 34 65 NW10G16 30.00S Laguardia MOCLDY 46 33 60 NW9 29.99S J F K MOCLDY 47 32 56 NW14 30.00S Boston Logan MOCLDY 43 33 68 NW7 29.96R Ft. Lauderdale MOSUNNY 78 62 57 SE13 29.98S Chicago O`Hare CLOUDY 41 36 82 E9 29.88F HAZE Chicago Midway CLOUDY 41 35 79 E9 29.88F Houston Bush CLOUDY 63 58 83 SW7 29.77F Houston Hobby PTSUNNY 66 60 81 SW3 29.76F Nashville LGT RAIN 58 56 93 S7 29.82F FOG Atlanta PTSUNNY 72 54 53 S10 29.92F $$ GAZ044-118-TXZ119-213-NCZ071-DCZ001-MDZ014-506-PAZ021-071-NJZ106- NYZ176-178-MAZ106-OHZ011-021-055-MIZ076-KYZ091-ILZ014-INZ047- MNZ060-192200- ...Gateway Observations for Savannah International... CITY SKY/WX TMP DP RH WIND PRES REMARKS Savannah Arpt CLOUDY 69 54 58 E12 29.98R Atlanta PTSUNNY 72 54 53 S10 29.92F Charlotte PTSUNNY 64 36 35 CALM 30.00F Dallas DFW MOSUNNY 66 52 60 S16 29.62F Houston Bush CLOUDY 63 58 83 SW7 29.77F Wash National CLOUDY 52 38 58 NE5 30.03S Wash Dulles CLOUDY 51 36 56 NW7 30.03R Baltimore CLOUDY 50 37 61 W6 30.00S Philadelphia CLOUDY 47 34 60 N8 30.03R Newark CLOUDY 45 34 65 NW10G16 30.00S Laguardia MOCLDY 46 33 60 NW9 29.99S J F K MOCLDY 47 32 56 NW14 30.00S Boston MOCLDY 43 33 68 NW7 29.96R Pittsburg CLOUDY 41 35 79 S9 30.01S Akron CLOUDY 40 34 79 S9 30.01S WCI 34 Cleveland CLOUDY 45 35 68 S10 30.02F Cincinnati CLOUDY 49 41 74 E7 29.91F Columbus N/A 43 38 81 E7 29.96S Detroit CLOUDY 37 32 82 S7 29.98S HAZE WCI 32 Chicago O`Hare CLOUDY 41 36 82 E9 29.88F HAZE Minneapolis PTSUNNY 37 31 78 S13 29.76S WCI 29 Indianapolis CLOUDY 46 39 76 E10 29.86F $$

USA.gov is the U.S. government's official web portal to all federal, state and local government web resources and services.